TimeEST,TemperatureF,Dew PointF,Humidity,Sea Level PressureIn,VisibilityMPH,Wind Direction,Wind SpeedMPH,Gust SpeedMPH,PrecipitationIn,Events,Conditions,WindDirDegrees,DateUTC
12:54 AM,46.0,37.0,71,30.23,10.0,NNE,5.8,-,N/A,,Clear,30,2013-11-11 05:54:00
1:54 AM,46.9,33.1,59,30.24,10.0,NNE,5.8,-,N/A,,Clear,30,2013-11-11 06:54:00
2:54 AM,48.0,30.9,52,30.25,10.0,NNE,6.9,-,N/A,,Clear,30,2013-11-11 07:54:00
3:54 AM,46.0,30.0,54,30.26,10.0,NNE,5.8,-,N/A,,Clear,30,2013-11-11 08:54:00
4:54 AM,42.1,30.9,65,30.29,10.0,NNE,5.8,-,N/A,,Clear,20,2013-11-11 09:54:00
5:54 AM,39.9,30.9,70,30.30,10.0,NNE,5.8,-,N/A,,Clear,30,2013-11-11 10:54:00
6:54 AM,39.9,30.0,68,30.32,10.0,Calm,Calm,-,N/A,,Clear,0,2013-11-11 11:54:00
7:54 AM,45.0,32.0,60,30.34,10.0,NNE,6.9,-,N/A,,Clear,30,2013-11-11 12:54:00
8:54 AM,50.0,28.9,44,30.35,10.0,ENE,8.1,20.7,N/A,,Clear,60,2013-11-11 13:54:00
9:54 AM,54.0,27.0,35,30.34,10.0,ENE,6.9,-,N/A,,Clear,60,2013-11-11 14:54:00
10:54 AM,55.9,28.0,34,30.33,10.0,ENE,8.1,-,N/A,,Clear,70,2013-11-11 15:54:00
11:54 AM,57.9,28.0,32,30.30,10.0,NNE,3.5,-,N/A,,Clear,20,2013-11-11 16:54:00
12:54 PM,59.0,28.0,31,30.27,10.0,ENE,3.5,-,N/A,,Clear,60,2013-11-11 17:54:00
1:54 PM,61.0,27.0,27,30.24,10.0,WNW,3.5,-,N/A,,Clear,290,2013-11-11 18:54:00
2:54 PM,62.1,27.0,26,30.22,10.0,Calm,Calm,-,N/A,,Clear,0,2013-11-11 19:54:00
3:54 PM,62.1,27.0,26,30.22,10.0,Calm,Calm,-,N/A,,Clear,0,2013-11-11 20:54:00
4:54 PM,57.0,32.0,39,30.21,10.0,Calm,Calm,-,N/A,,Clear,0,2013-11-11 21:54:00
5:54 PM,48.0,36.0,63,30.20,10.0,Calm,Calm,-,N/A,,Clear,0,2013-11-11 22:54:00
6:54 PM,42.1,36.0,79,30.21,10.0,Calm,Calm,-,N/A,,Clear,0,2013-11-11 23:54:00
7:54 PM,43.0,37.0,80,30.21,10.0,Calm,Calm,-,N/A,,Clear,0,2013-11-12 00:54:00
8:54 PM,37.9,35.1,89,30.20,10.0,Calm,Calm,-,N/A,,Clear,0,2013-11-12 01:54:00
9:54 PM,37.9,35.1,89,30.19,9.0,Calm,Calm,-,N/A,,Clear,0,2013-11-12 02:54:00
10:54 PM,37.0,35.1,93,30.19,10.0,Calm,Calm,-,N/A,,Clear,0,2013-11-12 03:54:00
11:54 PM,36.0,35.1,97,30.17,10.0,Calm,Calm,-,N/A,,Clear,0,2013-11-12 04:54:00